Board Camp, AR

4:24 PM CDT on August 29, 2016 (GMT -0500)
Mena

Weather History for KMEZ - October, 2012

Change the Weather History Date:

Tuesday, October 9, 2012

  Actual Average (KDEQ) Record (KDEQ)
Temperature  
Mean Temperature 55 °F 65 °F  
Max Temperature 68 °F 78 °F 96 °F (1963)
Min Temperature 42 °F 52 °F 30 °F (2000)
Degree Days  
Heating Degree Days 10 3  
Month to date heating degree days 19  
Since 1 July heating degree days 28  
Cooling Degree Days 0 3  
Month to date cooling degree days 31  
Year to date cooling degree days 1896  
Growing Degree Days 5 (Base 50)    
Moisture  
Dew Point 50 °F    
Average Humidity 82    
Maximum Humidity 100    
Minimum Humidity 56    
Precipitation  
Precipitation 0.00 in 0.12 in 4.18 in (1993)
Month to date precipitation 1.36  
Year to date precipitation 36.56  
Snow  
Snow 0.00 in - - ()
Month to date snowfall  
Since 1 July snowfall  
Since 1 September snowfall  
Snow Depth -    
Sea Level Pressure  
Sea Level Pressure 30.05 in    
Wind  
Wind Speed 1 mph (SSE)    
Max Wind Speed 7 mph    
Max Gust Speed 16 mph    
Visibility 9 miles    
Events Fog , Rain    
T = Trace of Precipitation, MM = Missing Value Source: NWS Daily Summary

Daily Weather History Graph

Daily Weather History Graph

Search for Another Location

Airport or City:

Trip Planner

Search our weather history database for the weather conditions in past years. The results will help you decide how hot, cold, wet, or windy it might be!

Date:

Astronomy

Oct. 09, 2012 Rise Set
Actual Time 7:17 AM CDT 6:49 PM CDT
Civil Twilight 6:52 AM CDT 7:14 PM CDT
Nautical Twilight 6:23 AM CDT 7:43 PM CDT
Astronomical Twilight 5:54 AM CDT 8:12 PM CDT
Moon 1:09 AM CDT (10/9) 3:03 PM CDT (10/9)
Length of Visible Light 12h 21m
Length of Day
11h 31m
Last Quarter, 36% of the Moon is Illuminated
Oct 9
Last Quarter
Oct 15
New
Oct 21
First Quarter
Oct 29
Full
Nov 6
Last Quarter

Hourly Weather History & Observations

Time (CDT) Temp. Windchill Dew Point Humidity Pressure Visibility Wind Dir Wind Speed Gust Speed Precip Events Conditions
12:15 AM 51.8 °F - 42.8 °F 71% 30.11 in 10.0 mi Calm Calm - N/A   Clear
12:35 AM 48.2 °F - 42.8 °F 82% 30.11 in 10.0 mi Calm Calm - N/A   Clear
12:55 AM 46.4 °F - 42.8 °F 87% 30.11 in 10.0 mi Calm Calm - N/A   Clear
1:15 AM 46.4 °F - 42.8 °F 87% 30.11 in 10.0 mi Calm Calm - N/A   Clear
1:35 AM 46.4 °F - 42.8 °F 87% 30.11 in 10.0 mi Calm Calm - N/A   Clear
1:55 AM 46.4 °F - 44.6 °F 93% 30.11 in 10.0 mi Calm Calm - N/A   Clear
2:15 AM 44.6 °F - 44.6 °F 100% 30.11 in 10.0 mi Calm Calm - N/A   Clear
2:35 AM 44.6 °F - 44.6 °F 100% 30.11 in 10.0 mi Calm Calm - N/A   Clear
3:15 AM 46.4 °F 45.2 °F 46.4 °F 100% 30.11 in 10.0 mi South 3.5 mph - N/A   Clear
3:35 AM 46.4 °F - 44.6 °F 93% 30.10 in 10.0 mi Calm Calm - N/A   Clear
3:55 AM 46.4 °F - 44.6 °F 93% 30.09 in 10.0 mi Calm Calm - N/A   Clear
4:15 AM 46.4 °F - 44.6 °F 93% 30.09 in 10.0 mi Calm Calm - N/A   Clear
4:35 AM 48.2 °F - 46.4 °F 93% 30.09 in 10.0 mi South 3.5 mph - N/A   Clear
4:55 AM 50.0 °F - 44.6 °F 82% 30.09 in 10.0 mi Calm Calm - N/A   Clear
5:15 AM 46.4 °F - 42.8 °F 87% 30.09 in 10.0 mi Calm Calm - N/A   Clear
5:35 AM 44.6 °F - 42.8 °F 93% 30.09 in 10.0 mi Calm Calm - N/A   Clear
5:55 AM 42.8 °F - 42.8 °F 100% 30.09 in 10.0 mi Calm Calm - N/A   Clear
6:15 AM 42.8 °F - 42.8 °F 100% 30.09 in 10.0 mi Calm Calm - N/A   Clear
6:35 AM 42.8 °F - 42.8 °F 100% 30.09 in 10.0 mi Calm Calm - N/A   Clear
7:15 AM 42.8 °F - 42.8 °F 100% 30.09 in 10.0 mi Calm Calm - N/A   Clear
7:35 AM 42.8 °F - 42.8 °F 100% 30.09 in 7.0 mi Calm Calm - N/A   Clear
7:55 AM 42.8 °F - 42.8 °F 100% 30.09 in 7.0 mi Calm Calm - N/A   Clear
8:15 AM 44.6 °F 43.1 °F 44.6 °F 100% 30.09 in 7.0 mi East 3.5 mph - N/A   Scattered Clouds
8:35 AM 46.4 °F - 46.4 °F 100% 30.10 in 10.0 mi Calm Calm - N/A   Mostly Cloudy
9:15 AM 51.8 °F - 50.0 °F 94% 30.10 in 10.0 mi Calm Calm - N/A   Overcast
9:35 AM 55.4 °F - 48.2 °F 77% 30.11 in 10.0 mi South 3.5 mph - N/A   Overcast
9:55 AM 55.4 °F - 44.6 °F 67% 30.11 in 10.0 mi SSE 6.9 mph - N/A   Overcast
10:15 AM 55.4 °F - 44.6 °F 67% 30.11 in 10.0 mi South 5.8 mph - N/A   Overcast
10:35 AM 55.4 °F - 44.6 °F 67% 30.10 in 10.0 mi SSE 6.9 mph - N/A   Overcast
10:55 AM 55.4 °F - 44.6 °F 67% 30.09 in 10.0 mi SSE 4.6 mph - N/A   Overcast
11:15 AM 57.2 °F - 44.6 °F 63% 30.09 in 10.0 mi Calm Calm - N/A   Overcast
11:35 AM 57.2 °F - 46.4 °F 67% 30.09 in 10.0 mi South 3.5 mph - N/A   Overcast
11:55 AM 57.2 °F - 46.4 °F 67% 30.08 in 10.0 mi SSE 3.5 mph - N/A   Overcast
12:15 PM 59.0 °F - 46.4 °F 63% 30.07 in 10.0 mi Calm Calm - N/A   Overcast
12:35 PM 59.0 °F - 46.4 °F 63% 30.05 in 10.0 mi ESE 4.6 mph - N/A   Overcast
12:55 PM 60.8 °F - 46.4 °F 59% 30.03 in 10.0 mi SE 3.5 mph - N/A   Overcast
1:15 PM 60.8 °F - 48.2 °F 63% 30.03 in 10.0 mi Calm Calm - N/A   Overcast
1:35 PM 62.6 °F - 50.0 °F 63% 30.01 in 10.0 mi Calm Calm - N/A   Overcast
1:55 PM 62.6 °F - 50.0 °F 63% 30.00 in 10.0 mi South 4.6 mph - N/A   Overcast
2:15 PM 64.4 °F - 51.8 °F 64% 29.98 in 10.0 mi SSE 5.8 mph - N/A   Overcast
2:35 PM 66.2 °F - 51.8 °F 60% 29.97 in 10.0 mi SSE 4.6 mph - N/A   Overcast
2:55 PM 68.0 °F - 51.8 °F 56% 29.95 in 10.0 mi SSE 5.8 mph - N/A   Overcast
3:15 PM 68.0 °F - 51.8 °F 56% 29.95 in 10.0 mi South 3.5 mph - N/A   Overcast
3:35 PM 66.2 °F - 51.8 °F 60% 29.93 in 10.0 mi SSE 6.9 mph 16.1 mph N/A   Mostly Cloudy
3:55 PM 66.2 °F - 53.6 °F 64% 29.92 in 10.0 mi SSE 5.8 mph - N/A   Overcast
4:15 PM 66.2 °F - 53.6 °F 64% 29.93 in 10.0 mi South 5.8 mph - N/A   Overcast
4:35 PM 64.4 °F - 53.6 °F 68% 29.93 in 10.0 mi South 3.5 mph - N/A   Overcast
5:15 PM 64.4 °F - 53.6 °F 68% 29.94 in 10.0 mi SW 4.6 mph - N/A   Overcast
5:35 PM 64.4 °F - 53.6 °F 68% 29.94 in 10.0 mi South 3.5 mph - N/A   Overcast
5:55 PM 64.4 °F - 53.6 °F 68% 29.93 in 10.0 mi Calm Calm - N/A   Overcast
6:15 PM 64.4 °F - 53.6 °F 68% 29.94 in 10.0 mi Calm Calm - N/A   Overcast
6:35 PM 64.4 °F - 53.6 °F 68% 29.96 in 10.0 mi Calm Calm - N/A   Overcast
6:55 PM 64.4 °F - 55.4 °F 73% 29.97 in 10.0 mi NNW 4.6 mph - N/A   Overcast
7:15 PM 62.6 °F - 55.4 °F 77% 29.98 in 10.0 mi NNW 3.5 mph - N/A Rain Light Rain
7:35 PM 62.6 °F - 55.4 °F 77% 29.99 in 7.0 mi Calm Calm - N/A   Drizzle
7:55 PM 60.8 °F - 59.0 °F 94% 30.01 in 7.0 mi Calm Calm - N/A   Drizzle
8:15 PM 60.8 °F - 60.8 °F 100% 30.01 in 7.0 mi Calm Calm - N/A   Drizzle
8:35 PM 60.8 °F - 60.8 °F 100% 30.02 in 7.0 mi Calm Calm - N/A   Light Drizzle
8:55 PM 60.8 °F - 60.8 °F 100% 30.03 in 7.0 mi Calm Calm - N/A   Drizzle
9:15 PM 60.8 °F - 60.8 °F 100% 30.04 in 5.0 mi Calm Calm - N/A   Overcast
9:35 PM 60.8 °F - 60.8 °F 100% 30.04 in 7.0 mi Calm Calm - N/A   Overcast
9:55 PM 60.8 °F - 60.8 °F 100% 30.05 in 7.0 mi Calm Calm - N/A   Overcast
10:15 PM 60.8 °F - 60.8 °F 100% 30.06 in 7.0 mi Calm Calm - N/A   Overcast
10:35 PM 60.8 °F - 60.8 °F 100% 30.06 in 7.0 mi Calm Calm - N/A   Overcast
10:55 PM 60.8 °F - 60.8 °F 100% 30.06 in 5.0 mi Calm Calm - N/A   Overcast
11:15 PM 59.0 °F - 59.0 °F 100% 30.07 in 3.0 mi Calm Calm - N/A   Mist
11:35 PM 59.0 °F - 59.0 °F 100% 30.07 in 1.2 mi Calm Calm - N/A   Mist
11:55 PM 55.4 °F - 55.4 °F 100% 30.07 in 0.2 mi Calm Calm - N/A Fog Fog